TimeEST,TemperatureF,Dew PointF,Humidity,Sea Level PressureIn,VisibilityMPH,Wind Direction,Wind SpeedMPH,Gust SpeedMPH,PrecipitationIn,Events,Conditions,WindDirDegrees,DateUTC
12:53 AM,6.1,3.0,87,30.28,10.0,East,3.5,-,N/A,,Clear,80,2012-12-17 05:53:00
1:53 AM,8.1,5.0,87,30.29,10.0,East,8.1,-,N/A,,Clear,90,2012-12-17 06:53:00
2:22 AM,8.6,6.8,92,30.23,10.0,East,9.2,-,N/A,,Mostly Cloudy,100,2012-12-17 07:22:00
2:32 AM,8.6,6.8,92,30.23,10.0,East,10.4,-,N/A,,Overcast,100,2012-12-17 07:32:00
2:53 AM,8.1,6.1,92,30.29,10.0,East,8.1,-,N/A,,Overcast,100,2012-12-17 07:53:00
3:38 AM,10.4,6.8,85,30.23,10.0,ESE,6.9,-,N/A,,Overcast,120,2012-12-17 08:38:00
3:53 AM,10.9,8.1,88,30.29,10.0,East,5.8,-,N/A,,Overcast,100,2012-12-17 08:53:00
4:53 AM,12.0,9.0,88,30.27,10.0,East,6.9,-,N/A,,Overcast,100,2012-12-17 09:53:00
5:53 AM,14.0,10.9,88,30.28,10.0,ESE,10.4,-,N/A,,Overcast,120,2012-12-17 10:53:00
6:53 AM,12.9,10.9,92,30.27,10.0,East,4.6,-,N/A,,Overcast,90,2012-12-17 11:53:00
7:53 AM,15.1,12.9,91,30.28,10.0,ESE,4.6,-,N/A,,Overcast,110,2012-12-17 12:53:00
8:53 AM,16.0,14.0,92,30.28,10.0,East,5.8,-,N/A,,Overcast,90,2012-12-17 13:53:00
9:53 AM,19.0,17.1,92,30.27,10.0,East,8.1,-,N/A,,Overcast,90,2012-12-17 14:53:00
10:06 AM,19.4,17.6,93,30.20,3.0,East,9.2,-,N/A,,Overcast,90,2012-12-17 15:06:00
10:17 AM,19.4,17.6,93,30.19,2.5,East,8.1,-,N/A,,Overcast,100,2012-12-17 15:17:00
10:36 AM,19.4,17.6,93,30.18,1.5,East,6.9,-,N/A,,Overcast,90,2012-12-17 15:36:00
10:53 AM,19.9,18.0,92,30.23,1.5,East,8.1,-,N/A,,Overcast,100,2012-12-17 15:53:00
10:57 AM,19.4,17.6,93,30.18,2.0,East,5.8,-,N/A,,Overcast,90,2012-12-17 15:57:00
11:27 AM,19.4,19.4,100,30.17,1.8,East,5.8,-,N/A,,Overcast,100,2012-12-17 16:27:00
11:35 AM,21.2,19.4,93,30.16,3.0,East,5.8,-,N/A,,Overcast,90,2012-12-17 16:35:00
11:53 AM,21.0,19.0,92,30.21,2.0,East,6.9,-,N/A,,Overcast,90,2012-12-17 16:53:00
12:01 PM,21.2,19.4,93,30.15,1.8,East,9.2,-,N/A,,Overcast,90,2012-12-17 17:01:00
12:09 PM,21.2,19.4,93,30.14,2.5,East,8.1,-,N/A,,Overcast,90,2012-12-17 17:09:00
12:37 PM,21.2,19.4,93,30.13,4.0,East,8.1,-,N/A,,Overcast,80,2012-12-17 17:37:00
12:53 PM,21.9,19.9,92,30.18,8.0,East,6.9,-,N/A,,Overcast,80,2012-12-17 17:53:00
1:03 PM,21.2,19.4,93,30.12,10.0,East,9.2,-,N/A,,Overcast,80,2012-12-17 18:03:00
1:53 PM,23.0,21.0,92,30.17,6.0,East,6.9,-,N/A,,Overcast,80,2012-12-17 18:53:00
2:44 PM,23.0,21.2,93,30.12,10.0,ENE,5.8,-,N/A,,Overcast,70,2012-12-17 19:44:00
2:53 PM,24.1,21.9,91,30.17,10.0,East,8.1,-,N/A,,Overcast,80,2012-12-17 19:53:00
3:53 PM,24.1,21.9,91,30.17,10.0,East,5.8,-,N/A,,Overcast,80,2012-12-17 20:53:00
4:53 PM,25.0,23.0,92,30.16,10.0,East,6.9,-,0.00,Snow,Light Snow,90,2012-12-17 21:53:00
7:53 PM,27.0,25.0,92,30.14,1.2,East,8.1,-,0.02,Snow,Light Snow,100,2012-12-18 00:53:00
8:26 PM,26.6,26.6,100,30.10,1.0,East,6.9,-,0.02,Snow,Light Snow,100,2012-12-18 01:26:00
8:38 PM,26.6,26.6,100,30.09,1.8,East,6.9,-,0.02,Snow,Light Snow,100,2012-12-18 01:38:00
8:46 PM,26.6,26.6,100,30.09,2.5,East,6.9,-,0.02,Snow,Light Snow,100,2012-12-18 01:46:00
8:53 PM,27.0,26.1,96,30.14,2.0,East,6.9,-,0.03,Snow,Light Snow,100,2012-12-18 01:53:00
9:00 PM,26.6,26.6,100,30.09,1.8,ESE,8.1,-,0.00,Snow,Light Snow,110,2012-12-18 02:00:00
9:12 PM,26.6,26.6,100,30.09,2.0,ESE,8.1,-,0.00,Snow,Light Snow,110,2012-12-18 02:12:00
9:25 PM,26.6,26.6,100,30.09,4.0,ESE,10.4,-,0.00,Snow,Light Snow,120,2012-12-18 02:25:00
9:53 PM,28.0,26.1,92,30.12,3.0,SE,11.5,-,0.00,Snow,Light Snow,130,2012-12-18 02:53:00
10:53 PM,28.0,27.0,96,30.12,3.0,ESE,11.5,-,0.00,Snow,Light Snow,120,2012-12-18 03:53:00
11:03 PM,28.4,26.6,93,30.07,2.5,SE,10.4,-,0.00,Snow,Light Snow,130,2012-12-18 04:03:00
11:24 PM,28.4,26.6,93,30.07,1.5,ESE,10.4,-,0.01,Snow,Light Snow,120,2012-12-18 04:24:00
11:29 PM,28.4,26.6,93,30.07,1.2,ESE,9.2,-,0.01,Snow,Light Snow,120,2012-12-18 04:29:00
11:44 PM,28.4,26.6,93,30.07,1.8,SE,10.4,-,0.01,Snow,Light Snow,130,2012-12-18 04:44:00
11:53 PM,28.0,27.0,96,30.11,2.0,SE,11.5,-,0.01,Snow,Light Snow,130,2012-12-18 04:53:00